Weather History for Viroqua, WI

Change the Weather History Date:

Friday, December 21, 2012

  Actual Average (KLSE) Record (KLSE)
Temperature  
Mean Temperature 16 °F 20 °F  
Max Temperature 21 °F 27 °F 60 °F (1877)
Min Temperature 10 °F 12 °F -29 °F (1872)
Degree Days  
Heating Degree Days 50 45  
Month to date heating degree days 881  
Since 1 July heating degree days 2381  
Cooling Degree Days 0 0  
Month to date cooling degree days 0  
Year to date cooling degree days 782  
Moisture  
Dew Point 10 °F    
Average Humidity 80    
Maximum Humidity 93    
Minimum Humidity 63    
Precipitation  
Precipitation 0.00 in 0.04 in 0.80 in (1920)
Month to date precipitation 1.00  
Year to date precipitation 32.70  
Snow  
Snow 0.00 in 0.30 in 9.00 in (1920)
Month to date snowfall 8.1  
Since 1 July snowfall 12.4  
Snow Depth -    
Sea Level Pressure  
Sea Level Pressure 30.06 in    
Wind  
Wind Speed 16 mph (NW)    
Max Wind Speed 23 mph    
Max Gust Speed 32 mph    
Visibility 10 miles    
Events      
T = Trace of Precipitation, MM = Missing Value Source: NWS Daily Summary

Daily Weather History Graph

Daily Weather History Graph

Search for Another Location

Airport:

Trip Planner

Search our weather history database for the weather conditions in past years. The results will help you decide how hot, cold, wet, or windy it might be!

Date:

Astronomy

Dec. 21, 2012 Rise Set
Actual Time 7:33 AM CST 4:30 PM CST
Civil Twilight 7:01 AM CST 5:02 PM CST
Nautical Twilight 6:24 AM CST 5:39 PM CST
Astronomical Twilight 5:49 AM CST 6:14 PM CST
Moon 12:24 PM CST (12/21) 1:13 AM CST (12/21)
Length of Visible Light 10h 01m
Length of Day
8h 56m
Waxing Gibbous, 65% of the Moon is Illuminated
Dec 21
Waxing Gibbous
Dec 28
Full
Jan 4
Last Quarter
Jan 11
New
Jan 18
First Quarter

Hourly Weather History & Observations

Time (CST) Temp. Windchill Dew Point Humidity Pressure Visibility Wind Dir Wind Speed Gust Speed Precip Events Conditions
12:15 AM 21.2 °F 4.9 °F 19.4 °F 93% 29.78 in 10.0 mi NW 23.0 mph 28.8 mph N/A   Overcast
12:35 AM 21.2 °F 4.9 °F 19.4 °F 93% 29.80 in 10.0 mi NW 23.0 mph 29.9 mph N/A   Overcast
12:55 AM 21.2 °F 5.6 °F 17.6 °F 86% 29.81 in 10.0 mi NW 20.7 mph 31.1 mph N/A   Overcast
1:15 AM 19.4 °F 2.5 °F 17.6 °F 93% 29.82 in 10.0 mi NW 23.0 mph 31.1 mph N/A   Overcast
1:35 AM 19.4 °F 4.5 °F 15.8 °F 86% 29.83 in 7.0 mi NW 17.3 mph 29.9 mph N/A   Overcast
1:55 AM 17.6 °F 0.1 °F 15.8 °F 93% 29.85 in 7.0 mi NW 23.0 mph 32.2 mph N/A   Overcast
2:15 AM 17.6 °F 0.9 °F 15.8 °F 93% 29.86 in 10.0 mi NW 20.7 mph 28.8 mph N/A   Overcast
2:35 AM 17.6 °F 2.2 °F 14.0 °F 86% 29.87 in 10.0 mi NW 17.3 mph 24.2 mph N/A   Overcast
2:55 AM 17.6 °F 1.3 °F 14.0 °F 86% 29.88 in 10.0 mi NW 19.6 mph 26.5 mph N/A   Overcast
3:15 AM 17.6 °F 0.5 °F 14.0 °F 86% 29.89 in 10.0 mi NW 21.9 mph 27.6 mph N/A   Overcast
3:35 AM 15.8 °F -1.1 °F 12.2 °F 86% 29.89 in 10.0 mi NW 19.6 mph 25.3 mph N/A   Mostly Cloudy
3:55 AM 14.0 °F -4.3 °F 12.2 °F 93% 29.90 in 10.0 mi NW 21.9 mph 28.8 mph N/A   Clear
4:15 AM 14.0 °F -3.4 °F 12.2 °F 93% 29.92 in 10.0 mi NW 19.6 mph 24.2 mph N/A   Clear
4:35 AM 14.0 °F -2.0 °F 10.4 °F 86% 29.93 in 10.0 mi NW 16.1 mph - N/A   Clear
4:55 AM 14.0 °F -3.0 °F 10.4 °F 86% 29.93 in 10.0 mi NW 18.4 mph 25.3 mph N/A   Clear
5:15 AM 14.0 °F -3.0 °F 10.4 °F 86% 29.95 in 10.0 mi WNW 18.4 mph 25.3 mph N/A   Clear
5:35 AM 14.0 °F -0.2 °F 10.4 °F 86% 29.96 in 10.0 mi NW 12.7 mph 23.0 mph N/A   Clear
5:55 AM 14.0 °F 0.5 °F 10.4 °F 86% 29.98 in 10.0 mi NW 11.5 mph - N/A   Clear
6:15 AM 14.0 °F -2.0 °F 10.4 °F 86% 29.98 in 10.0 mi NW 16.1 mph - N/A   Clear
6:35 AM 14.0 °F -3.0 °F 8.6 °F 79% 29.99 in 10.0 mi NW 18.4 mph 24.2 mph N/A   Clear
6:55 AM 12.2 °F -4.3 °F 6.8 °F 79% 30.01 in 10.0 mi NW 16.1 mph 23.0 mph N/A   Clear
7:15 AM 12.2 °F -2.5 °F 6.8 °F 79% 30.00 in 10.0 mi NNW 12.7 mph - N/A   Clear
7:35 AM 12.2 °F -3.1 °F 6.8 °F 79% 30.02 in 10.0 mi NW 13.8 mph - N/A   Clear
7:55 AM 12.2 °F -2.5 °F 5.0 °F 73% 30.02 in 10.0 mi NW 12.7 mph - N/A   Clear
8:15 AM 12.2 °F -3.1 °F 6.8 °F 79% 30.02 in 10.0 mi NW 13.8 mph 18.4 mph N/A   Clear
8:35 AM 14.0 °F -1.4 °F 6.8 °F 73% 30.04 in 10.0 mi NW 15.0 mph 18.4 mph N/A   Clear
8:55 AM 14.0 °F -1.4 °F 6.8 °F 73% 30.05 in 10.0 mi NW 15.0 mph 19.6 mph N/A   Clear
9:15 AM 14.0 °F -2.5 °F 8.6 °F 79% 30.06 in 10.0 mi NW 17.3 mph 23.0 mph N/A   Clear
9:35 AM 14.0 °F -2.0 °F 8.6 °F 79% 30.07 in 10.0 mi NNW 16.1 mph - N/A   Clear
9:55 AM 14.0 °F -2.5 °F 8.6 °F 79% 30.08 in 10.0 mi NNW 17.3 mph 20.7 mph N/A   Clear
10:15 AM 15.8 °F 0.9 °F 8.6 °F 73% 30.07 in 10.0 mi NNW 15.0 mph - N/A   Clear
10:35 AM 17.6 °F 3.2 °F 8.6 °F 68% 30.08 in 10.0 mi NW 15.0 mph 21.9 mph N/A   Clear
10:55 AM 17.6 °F 2.7 °F 10.4 °F 73% 30.08 in 10.0 mi NW 16.1 mph - N/A   Clear
11:15 AM 17.6 °F 2.2 °F 10.4 °F 73% 30.08 in 10.0 mi NW 17.3 mph 23.0 mph N/A   Clear
11:35 AM 17.6 °F 2.7 °F 10.4 °F 73% 30.08 in 10.0 mi NW 16.1 mph - N/A   Clear
11:55 AM 19.4 °F 5.0 °F 10.4 °F 68% 30.08 in 10.0 mi NW 16.1 mph - N/A   Clear
12:15 PM 19.4 °F 5.5 °F 10.4 °F 68% 30.07 in 10.0 mi NW 15.0 mph - N/A   Clear
12:35 PM 19.4 °F 5.5 °F 10.4 °F 68% 30.08 in 10.0 mi NW 15.0 mph - N/A   Clear
12:55 PM 19.4 °F 7.2 °F 12.2 °F 74% 30.08 in 10.0 mi NW 11.5 mph - N/A   Clear
1:15 PM 21.2 °F 8.9 °F 10.4 °F 63% 30.08 in 10.0 mi NW 12.7 mph - N/A   Clear
1:35 PM 21.2 °F 8.9 °F 12.2 °F 68% 30.09 in 10.0 mi WNW 12.7 mph - N/A   Clear
1:55 PM 21.2 °F 8.9 °F 12.2 °F 68% 30.10 in 10.0 mi WNW 12.7 mph - N/A   Clear
2:15 PM 21.2 °F 10.9 °F 12.2 °F 68% 30.10 in 10.0 mi WNW 9.2 mph - N/A   Clear
2:35 PM 21.2 °F 10.9 °F 12.2 °F 68% 30.11 in 10.0 mi WNW 9.2 mph - N/A   Clear
2:55 PM 21.2 °F 10.9 °F 12.2 °F 68% 30.12 in 10.0 mi NW 9.2 mph - N/A   Clear
3:15 PM 21.2 °F 11.7 °F 12.2 °F 68% 30.12 in 10.0 mi NW 8.1 mph - N/A   Clear
3:35 PM 19.4 °F 9.5 °F 10.4 °F 68% 30.12 in 10.0 mi NW 8.1 mph - N/A   Clear
3:55 PM 19.4 °F 7.2 °F 10.4 °F 68% 30.13 in 10.0 mi NW 11.5 mph - N/A   Clear
4:15 PM 19.4 °F 7.9 °F 10.4 °F 68% 30.13 in 10.0 mi NW 10.4 mph - N/A   Clear
4:35 PM 17.6 °F 8.2 °F 10.4 °F 73% 30.15 in 10.0 mi NW 6.9 mph - N/A   Clear
4:55 PM 17.6 °F 8.2 °F 8.6 °F 68% 30.16 in 10.0 mi WNW 6.9 mph - N/A   Clear
5:15 PM 17.6 °F 8.2 °F 8.6 °F 68% 30.17 in 10.0 mi WNW 6.9 mph - N/A   Clear
5:35 PM 15.8 °F 5.1 °F 8.6 °F 73% 30.17 in 10.0 mi WNW 8.1 mph - N/A   Clear
5:55 PM 15.8 °F 5.1 °F 8.6 °F 73% 30.17 in 10.0 mi WNW 8.1 mph - N/A   Clear
6:15 PM 15.8 °F 5.1 °F 8.6 °F 73% 30.18 in 10.0 mi WNW 8.1 mph - N/A   Clear
6:35 PM 14.0 °F 3.9 °F 8.6 °F 79% 30.18 in 10.0 mi WNW 6.9 mph - N/A   Clear
6:55 PM 14.0 °F 2.9 °F 8.6 °F 79% 30.19 in 10.0 mi WNW 8.1 mph - N/A   Clear
7:15 PM 14.0 °F 2.9 °F 10.4 °F 86% 30.20 in 10.0 mi WNW 8.1 mph - N/A   Clear
7:35 PM 14.0 °F 2.9 °F 8.6 °F 79% 30.20 in 10.0 mi WNW 8.1 mph - N/A   Clear
7:55 PM 12.2 °F 2.9 °F 8.6 °F 85% 30.20 in 10.0 mi West 5.8 mph - N/A   Clear
8:15 PM 12.2 °F 2.9 °F 8.6 °F 85% 30.20 in 10.0 mi WNW 5.8 mph - N/A   Clear
8:35 PM 12.2 °F 4.3 °F 8.6 °F 85% 30.19 in 10.0 mi WNW 4.6 mph - N/A   Clear
8:55 PM 12.2 °F 4.3 °F 8.6 °F 85% 30.19 in 10.0 mi West 4.6 mph - N/A   Clear
9:15 PM 12.2 °F - 8.6 °F 85% 30.18 in 10.0 mi Calm Calm - N/A   Clear
9:35 PM 12.2 °F 2.9 °F 8.6 °F 85% 30.18 in 10.0 mi WNW 5.8 mph - N/A   Clear
9:55 PM 12.2 °F 4.3 °F 10.4 °F 92% 30.18 in 10.0 mi NW 4.6 mph - N/A   Clear
10:15 PM 12.2 °F 6.1 °F 8.6 °F 85% 30.17 in 10.0 mi NW 3.5 mph - N/A   Clear
10:35 PM 10.4 °F -0.4 °F 8.6 °F 92% 30.17 in 10.0 mi WNW 6.9 mph - N/A   Clear
10:55 PM 10.4 °F 2.2 °F 8.6 °F 92% 30.17 in 10.0 mi NW 4.6 mph - N/A   Clear
11:15 PM 10.4 °F 4.0 °F 8.6 °F 92% 30.17 in 10.0 mi NW 3.5 mph - N/A   Clear
11:35 PM 10.4 °F 4.0 °F 8.6 °F 92% 30.17 in 10.0 mi West 3.5 mph - N/A   Clear
11:55 PM 10.4 °F 4.0 °F 8.6 °F 92% 30.17 in 10.0 mi West 3.5 mph - N/A   Clear